Theta_e
352 352 349 345 345 353 356 353 353 354 351 346 346 350 349 349 350 350 351 351 354 351 345 345 345 345 348 351 350 349 349 351 350 349 351 347 346 347 347 348 348 347 347 348 348 348 347 346 346 345 345 345 346 344 344 344 344 344 343 343 344 343 343 341 341 341 340 340 340 339 338 337 336 335 335 334 334 334 334 333 330 327 328 329 330 330 331 333 333 334 335 335 336 336 337 337 338
352 352 350 349 350 354 358 355 350 350 347 343 345 348 349 349 352 351 352 353 354 350 346 346 346 348 348 347 346 346 348 350 348 347 348 346 347 347 347 348 348 348 347 348 348 347 347 347 346 345 345 346 347 346 344 345 345 345 344 343 343 343 343 342 342 342 341 340 339 339 338 337 336 335 335 335 334 334 334 333 330 328 329 330 330 331 332 333 333 334 335 335 336 337 338 338 338
352 352 351 352 356 356 358 354 346 346 346 344 344 346 349 352 354 352 351 351 351 348 347 346 346 347 345 346 347 347 348 348 347 346 347 346 346 347 347 348 348 348 347 348 348 347 347 346 347 347 347 346 345 345 346 346 345 346 344 343 343 343 344 343 342 342 341 340 339 338 338 338 337 336 336 336 334 334 334 332 330 330 330 329 330 332 333 333 333 334 334 335 336 338 339 339 339
352 352 351 353 359 358 361 362 353 348 343 345 346 347 351 353 353 351 350 349 349 348 346 346 347 345 344 347 348 347 348 348 347 346 347 346 346 347 348 349 349 348 347 347 348 348 347 347 348 348 348 346 345 345 346 346 345 346 346 344 343 344 344 343 342 341 339 339 338 338 338 338 337 335 335 334 333 333 333 332 331 330 328 328 332 333 333 333 333 334 334 335 336 338 339 339 339
352 354 354 355 361 360 363 362 356 350 343 347 348 347 351 351 351 349 347 348 347 347 346 346 348 346 345 347 347 348 348 348 347 346 346 346 346 347 348 349 349 348 347 346 347 348 348 348 349 349 348 347 346 346 347 346 345 346 346 344 343 343 343 342 340 339 339 338 338 338 338 338 336 334 333 333 332 333 333 332 330 328 328 330 333 333 333 333 333 334 334 335 337 339 339 338 338
355 358 358 359 360 357 357 348 342 344 341 347 349 347 350 348 347 346 346 347 346 346 346 346 347 346 347 347 347 348 348 347 347 346 346 346 346 348 349 349 349 348 347 347 346 347 347 347 347 348 347 347 346 347 347 346 346 345 345 344 343 342 341 340 339 339 339 338 337 337 338 338 337 334 333 332 332 333 332 331 328 328 331 333 333 333 333 332 332 332 332 333 335 338 338 337 337
358 359 358 359 355 352 352 341 336 340 339 343 347 345 346 345 345 345 346 346 345 345 345 345 344 347 350 349 349 348 348 347 347 346 346 346 347 348 349 348 348 347 347 347 347 345 346 346 346 346 346 345 345 346 347 346 346 345 344 343 343 342 341 339 338 338 338 338 337 337 338 337 336 334 333 332 333 333 331 330 330 332 334 334 334 333 332 331 331 332 333 334 335 337 338 337 338
358 356 355 356 352 351 349 338 336 343 344 343 345 344 344 344 344 345 345 344 345 345 345 346 345 350 351 350 350 349 347 347 347 347 347 347 347 348 348 347 346 346 346 347 346 345 345 346 346 345 345 344 344 344 345 345 345 345 344 343 342 342 341 340 339 338 337 336 337 337 336 336 335 334 332 332 332 332 331 332 334 335 335 334 333 331 331 332 334 335 335 336 336 337 338 338 339
355 355 354 354 350 348 343 337 340 344 346 345 345 345 344 343 343 343 345 345 347 347 348 348 346 351 351 350 351 349 347 347 347 347 347 347 347 347 348 346 345 346 346 346 346 345 345 345 346 345 345 344 344 344 344 343 343 343 343 343 342 341 340 340 339 338 336 336 337 336 335 335 335 333 332 332 332 332 333 334 335 334 333 332 331 331 333 334 335 336 336 336 336 337 338 339 339
354 355 351 354 352 341 336 337 342 344 345 345 346 345 344 343 343 344 346 348 349 350 350 348 347 351 350 351 352 349 346 347 347 347 347 348 347 346 346 345 344 345 346 346 345 345 345 345 345 344 344 343 344 345 345 344 343 343 342 342 341 339 339 339 338 337 336 336 336 336 335 334 334 333 333 333 333 334 334 334 333 332 332 332 332 333 334 335 336 336 336 335 335 336 336 337 339
354 353 348 355 353 338 334 337 339 343 344 344 344 344 345 344 345 346 347 349 349 351 350 347 349 350 350 351 351 347 346 347 346 347 348 348 347 346 345 344 344 344 345 345 345 346 346 345 345 344 344 343 343 343 344 344 343 343 341 340 339 338 338 337 337 337 336 337 337 336 336 335 335 335 335 335 335 335 334 333 332 332 332 333 334 335 335 336 337 336 336 336 336 336 336 336 337
351 349 355 362 350 341 338 337 338 342 343 344 345 344 346 346 348 349 348 351 350 349 348 347 349 349 351 351 350 346 345 346 346 347 348 348 347 346 345 345 344 344 344 344 345 346 345 345 344 344 344 343 342 341 342 342 342 341 340 339 339 338 338 337 337 338 337 337 337 337 337 338 337 337 337 337 335 334 333 332 333 333 334 335 335 336 337 337 337 337 336 337 337 336 337 337 337
349 345 360 357 344 346 340 338 341 342 345 344 345 345 348 347 348 349 348 350 349 349 348 347 347 348 351 351 349 346 345 346 346 348 348 347 346 346 345 344 344 344 343 343 345 346 345 344 343 344 344 343 343 342 342 342 341 341 341 340 339 339 339 338 338 338 338 337 338 338 339 339 338 338 337 336 334 333 332 333 335 335 335 336 336 337 337 337 337 336 336 337 337 338 339 339 338
349 341 356 352 342 347 338 340 343 343 346 345 345 346 347 347 348 347 348 350 348 348 348 346 346 348 351 351 350 346 345 346 345 347 347 346 346 345 345 344 344 344 343 342 343 345 345 343 343 343 343 344 343 343 343 342 342 342 342 341 340 340 339 339 339 339 338 338 339 339 339 338 337 337 335 334 333 333 334 336 336 336 336 337 337 337 338 337 336 336 337 338 339 340 341 341 341
349 341 353 353 343 344 338 341 343 342 345 345 347 346 346 347 348 347 346 349 349 348 347 347 346 348 350 350 350 346 345 346 345 346 345 345 345 345 345 344 345 344 343 343 343 345 345 344 343 342 343 343 343 342 342 342 342 341 342 342 341 340 340 340 339 339 339 339 339 339 338 337 336 335 334 334 334 335 336 337 337 337 337 337 337 338 339 338 337 337 338 339 341 342 342 342 343
350 342 350 352 342 340 340 340 341 344 344 345 347 345 346 346 347 347 345 347 349 349 346 348 346 344 347 348 347 344 345 346 346 346 345 343 344 345 345 345 344 343 343 344 344 344 343 343 343 343 343 343 343 342 342 342 342 341 341 341 341 341 340 340 340 339 340 340 339 339 338 338 337 336 335 335 336 337 337 337 337 338 338 337 338 339 340 340 339 338 338 339 340 342 343 342 342
348 342 346 348 342 339 339 340 341 345 344 345 346 344 346 346 346 347 347 348 349 349 347 348 346 342 345 346 344 343 344 346 346 347 346 344 344 344 344 344 344 343 343 344 345 344 342 343 342 343 343 343 343 343 342 342 342 341 340 340 340 340 340 340 340 340 340 340 339 339 339 338 337 336 336 336 337 337 337 338 338 339 339 339 339 339 340 340 339 338 338 339 340 340 340 340 340
344 344 345 343 344 341 340 340 338 342 344 343 344 344 345 345 348 347 348 348 347 348 347 348 348 346 347 345 343 343 344 345 346 347 347 346 345 345 344 344 343 343 344 344 344 344 343 343 343 343 342 342 343 343 343 343 343 342 341 341 340 340 340 340 340 340 340 340 339 339 338 337 336 336 336 336 337 338 338 338 339 340 341 340 340 339 339 339 337 336 337 338 338 337 336 336 337
341 344 347 347 348 341 337 337 335 340 343 342 343 344 345 346 348 346 347 347 347 349 348 349 350 350 349 344 343 344 345 346 347 347 348 347 346 345 343 342 342 343 344 344 344 345 344 343 344 343 343 343 343 344 343 343 343 343 341 342 341 340 340 341 340 340 340 339 339 339 338 336 335 336 336 337 338 338 339 340 341 342 341 341 339 339 338 337 336 336 336 336 336 335 336 336 337
341 341 349 354 347 338 336 335 336 340 341 342 343 344 345 346 347 345 346 346 347 349 349 350 351 352 349 345 344 344 346 347 349 349 349 347 344 342 341 341 341 342 343 344 345 345 345 344 344 343 343 344 344 344 343 342 343 343 341 341 341 341 341 341 340 340 340 339 339 340 339 337 336 336 337 338 339 338 339 342 343 343 341 340 339 338 337 336 335 336 337 337 337 337 337 338 339
340 340 350 350 340 338 338 335 337 340 340 342 343 345 346 347 346 344 345 348 348 347 347 347 349 351 349 346 345 345 346 348 349 349 349 346 342 340 340 340 341 342 342 344 345 345 345 344 344 343 343 344 344 344 344 343 343 343 341 340 340 341 341 341 341 341 340 340 340 340 339 338 337 336 337 338 339 340 342 344 344 343 341 340 340 340 339 337 337 337 338 339 339 339 339 339 340
340 339 343 341 337 339 339 336 338 339 341 343 342 345 347 346 346 344 345 349 349 345 345 345 344 347 347 346 346 347 348 350 351 350 346 342 340 339 339 339 340 341 341 344 346 345 344 344 344 343 342 344 344 344 344 344 345 344 342 341 341 341 341 341 341 341 340 341 340 340 340 339 338 338 338 338 340 343 344 345 343 343 342 341 342 341 342 341 340 340 339 340 340 341 341 341 341
340 339 337 337 337 338 338 337 338 338 341 342 342 345 346 346 346 345 345 346 345 342 343 345 343 345 346 345 346 348 349 350 350 348 343 339 339 339 339 339 340 340 341 343 345 344 344 343 343 342 341 342 343 344 345 345 345 346 344 343 342 341 341 340 340 341 341 341 341 341 342 341 340 340 340 340 341 343 343 343 342 342 342 342 342 342 342 342 342 343 342 342 342 341 342 342 341
338 338 336 338 338 337 339 338 338 340 342 342 343 345 345 346 347 346 345 343 343 344 345 345 345 345 346 346 347 348 349 350 348 345 342 339 339 339 341 342 341 341 341 343 343 343 342 341 340 339 340 339 339 341 342 342 344 346 345 344 343 341 341 340 340 341 341 342 342 343 344 342 341 340 341 341 342 342 342 341 341 340 340 340 341 340 340 341 342 343 343 344 343 343 342 341 340
335 336 334 336 337 337 339 339 338 340 341 342 344 345 344 345 346 345 345 344 343 345 346 346 346 346 346 346 347 348 350 350 348 345 343 340 340 341 343 344 343 343 343 343 342 342 341 339 337 336 336 337 336 337 339 340 342 344 344 344 343 341 340 340 340 341 342 343 344 345 344 342 341 341 341 341 341 340 340 339 339 339 339 339 340 340 341 341 342 342 343 344 344 344 343 342 341
333 334 332 333 336 338 340 338 338 339 340 341 343 344 344 343 345 345 345 345 344 346 347 346 346 346 346 346 346 348 349 350 348 346 345 343 342 344 345 345 344 344 344 344 342 342 341 336 335 335 335 336 336 337 339 340 340 341 342 342 342 341 339 339 341 342 344 344 345 344 343 341 341 342 341 340 339 338 339 339 339 340 340 341 342 342 342 342 343 343 344 344 344 344 344 343 342
329 330 332 334 337 338 339 338 338 339 339 341 344 345 344 343 347 349 347 345 345 348 348 347 346 345 346 346 346 347 349 348 347 347 347 346 346 345 346 346 345 345 345 344 342 341 341 337 335 336 336 337 337 337 339 341 341 339 340 342 341 341 339 338 340 343 346 346 345 345 344 342 342 343 341 340 339 339 339 339 340 341 342 343 343 343 343 344 344 344 344 344 343 344 344 344 344
330 333 337 338 339 340 339 339 339 340 341 340 343 346 345 345 348 350 347 346 346 348 350 349 348 347 348 347 347 348 348 347 347 347 347 346 345 343 343 345 345 344 344 344 341 339 340 340 337 335 336 338 337 338 340 342 341 339 339 341 341 341 340 340 341 342 345 346 346 346 346 343 342 343 343 341 341 340 340 341 342 343 344 345 344 343 344 344 343 342 340 341 342 343 344 343 341
333 338 342 342 342 343 340 341 342 342 345 343 343 349 349 348 349 349 347 348 348 348 350 350 349 349 350 349 349 349 349 349 349 348 347 345 344 342 341 344 345 344 343 344 343 341 342 342 341 338 338 339 337 339 342 341 340 339 340 340 341 341 342 342 342 342 344 346 346 347 347 344 342 344 344 343 343 343 343 343 343 344 344 344 343 342 343 341 338 337 337 339 340 339 338 336 334
339 340 343 346 345 345 343 343 345 345 347 345 343 349 352 352 349 347 348 349 349 350 350 350 350 350 351 351 350 349 349 349 350 350 349 347 346 344 343 343 345 344 344 345 344 343 344 344 343 342 341 341 339 339 341 342 340 339 341 342 342 343 343 344 345 344 345 346 347 347 346 344 343 344 344 344 344 344 345 345 345 345 345 343 341 341 340 337 335 336 335 335 335 334 332 332 331
343 341 343 349 343 342 344 343 346 348 347 345 345 349 352 353 350 348 349 350 350 350 351 350 351 351 351 351 351 349 347 348 350 350 350 349 347 346 346 345 345 345 345 344 344 344 345 345 344 344 345 343 341 340 341 342 341 340 341 343 344 344 345 346 347 346 347 347 347 347 347 345 344 345 345 344 344 345 345 346 346 345 343 341 339 338 337 336 336 334 333 331 331 330 330 331 330
343 340 341 346 341 342 345 343 345 349 348 345 344 350 355 355 350 348 349 351 350 350 351 351 351 351 351 352 352 350 347 347 348 350 351 350 348 346 347 347 347 347 346 345 344 345 347 347 345 345 347 345 342 342 342 342 342 342 341 340 341 343 345 347 347 348 348 348 347 348 348 346 345 345 344 344 345 345 345 346 346 345 343 340 338 336 336 336 336 333 331 330 329 329 331 332 330
344 342 338 341 341 342 345 343 343 345 349 346 344 354 361 357 350 347 349 351 350 351 351 351 351 351 352 351 352 351 350 349 348 350 351 349 347 346 346 346 346 347 346 346 346 346 347 347 347 347 346 346 345 345 345 345 345 344 342 341 341 343 347 348 348 349 349 348 347 348 347 346 346 345 345 346 346 346 346 346 345 345 343 339 337 336 336 336 335 333 331 331 331 332 334 334 330
340 342 340 339 341 341 343 344 342 343 348 348 349 358 362 355 350 348 349 350 350 350 351 351 351 351 352 352 352 352 351 350 349 350 351 349 347 346 346 345 345 347 347 347 346 346 346 346 346 346 346 348 349 349 348 347 346 346 345 343 343 345 347 348 348 349 349 348 348 347 347 346 347 347 347 347 347 347 347 346 345 344 341 338 336 334 334 335 334 333 333 333 334 334 335 334 330
336 337 339 337 338 340 342 344 343 344 348 349 350 355 358 353 349 348 349 350 349 349 350 350 350 351 352 352 352 352 351 350 350 351 351 350 348 347 347 346 346 347 348 347 346 346 346 345 345 346 348 349 350 350 350 350 348 347 346 345 347 348 347 347 347 348 348 348 348 348 348 348 348 348 348 348 347 347 347 346 345 342 339 337 333 328 331 335 335 335 335 334 334 333 332 332 330
338 337 339 337 336 338 342 344 342 344 347 350 349 350 355 354 350 348 348 349 349 348 350 349 349 350 351 351 352 351 351 350 349 351 351 350 349 348 347 347 347 348 349 348 346 345 345 345 346 347 348 349 349 350 350 350 349 348 347 346 347 346 345 346 347 348 348 348 348 348 348 348 348 348 348 348 347 346 345 344 342 338 336 334 331 327 329 333 335 335 335 335 333 330 328 330 331
338 335 337 337 335 337 341 342 341 343 347 348 348 349 354 353 350 349 348 348 348 347 348 348 348 348 350 350 351 351 351 350 349 350 350 349 348 348 348 348 348 348 349 349 347 346 347 347 348 348 347 347 348 349 349 349 348 348 347 345 345 344 345 347 347 347 346 346 347 347 348 347 347 348 347 348 347 346 343 340 338 334 332 330 328 326 327 331 333 333 333 333 331 329 328 331 332
338 334 335 333 331 336 340 342 341 343 346 347 347 351 353 352 350 349 348 348 347 347 347 347 347 347 348 349 350 351 351 350 350 350 349 348 347 347 348 348 348 349 350 349 349 349 349 349 349 348 346 346 347 348 348 348 347 346 345 344 344 344 345 347 347 346 346 346 347 347 347 346 345 346 347 346 345 343 341 338 336 331 328 327 324 324 328 332 332 330 329 329 329 329 329 332 334
335 333 332 330 332 336 337 342 345 342 344 348 348 350 350 350 351 349 347 348 347 347 346 346 347 347 347 348 349 349 350 350 350 349 347 347 347 347 347 347 348 349 350 350 349 350 350 350 350 349 347 347 347 348 349 349 347 346 346 345 345 346 347 348 347 347 346 346 347 346 344 342 342 344 344 343 342 341 340 337 334 329 327 326 324 325 328 330 329 327 327 328 329 329 331 334 334
331 333 331 330 335 334 330 338 346 344 344 347 351 354 353 352 352 350 347 348 348 347 347 346 346 346 346 347 348 348 348 348 348 348 346 346 347 347 346 346 346 348 349 350 350 350 350 351 350 349 347 348 349 349 350 349 347 347 347 346 347 348 349 349 349 347 346 346 346 344 340 338 339 339 340 340 340 340 338 335 331 329 328 326 324 324 327 327 327 328 329 329 329 330 332 333 332
330 332 331 332 336 334 333 338 343 344 342 345 352 353 352 353 353 353 349 347 348 347 346 346 345 345 346 346 346 347 347 346 347 347 346 346 346 346 345 345 346 348 349 349 349 350 351 351 350 348 347 349 349 349 349 348 346 346 347 347 348 350 349 349 348 347 345 345 343 339 336 336 336 335 336 337 338 338 336 333 331 331 329 326 324 324 325 326 327 328 328 328 329 331 332 331 331
327 330 333 335 339 339 340 342 341 341 338 343 348 343 348 357 353 351 351 348 349 347 346 346 346 345 345 346 346 345 345 346 345 345 345 346 346 344 345 345 346 347 348 348 349 350 351 351 348 346 346 348 347 346 349 348 345 345 347 347 348 348 347 346 345 344 343 341 338 335 335 335 334 334 335 335 335 335 333 333 334 332 328 326 326 326 325 326 326 327 327 327 328 330 330 330 329
327 333 335 334 340 342 341 341 340 339 338 343 345 339 346 355 350 349 351 350 349 348 346 346 346 346 346 346 347 346 345 346 345 345 345 345 345 344 344 346 346 346 348 348 349 350 351 350 347 345 346 347 344 344 348 348 345 346 347 348 347 346 345 344 343 343 341 339 337 336 335 334 333 334 335 336 335 335 335 335 334 331 328 328 327 326 327 327 327 327 326 326 328 329 329 329 328
331 336 334 333 337 341 341 339 338 341 342 342 344 341 341 345 347 348 350 350 350 349 348 346 345 346 347 347 347 347 346 346 346 346 345 345 344 344 345 346 346 347 348 348 349 350 351 350 346 343 345 346 343 343 346 347 345 347 348 348 348 346 345 345 344 343 341 340 338 337 335 335 334 334 336 337 337 336 336 336 333 331 330 328 327 327 328 327 327 327 327 327 328 328 328 328 328
337 335 331 331 332 337 341 337 335 340 340 339 344 342 336 341 352 350 348 350 350 349 348 346 345 345 346 347 347 348 347 347 347 346 346 346 345 345 346 346 347 347 348 349 350 350 350 349 346 344 344 345 344 343 345 346 346 348 349 349 348 347 346 347 347 345 343 341 339 337 336 336 335 335 335 336 337 337 335 334 333 332 330 329 328 328 328 328 328 328 328 328 328 328 328 328 328
334 329 329 332 333 337 339 338 338 338 336 336 341 340 334 341 354 350 346 349 349 348 348 345 344 345 345 347 347 348 348 348 348 347 347 346 346 346 346 347 347 348 349 349 350 351 349 349 347 344 343 344 344 343 344 345 346 348 350 350 349 348 348 349 349 347 345 342 340 339 337 336 336 335 335 336 336 334 333 333 333 331 330 329 328 327 327 328 328 327 328 328 327 327 326 327 328
328 328 331 333 339 346 347 349 345 336 336 337 338 339 335 337 348 348 346 349 348 346 347 345 344 344 344 345 347 348 348 348 348 348 348 347 347 348 346 347 348 348 349 349 350 351 350 349 348 344 342 344 343 343 344 344 344 347 349 350 348 348 349 349 348 347 344 342 340 339 338 337 336 335 335 335 333 332 332 332 332 331 330 329 326 325 326 326 326 327 327 326 325 325 325 326 327
327 334 333 328 337 343 340 343 339 332 337 341 337 339 336 334 344 349 346 346 347 346 346 346 344 343 343 344 345 347 348 348 348 349 349 349 349 349 348 348 348 349 349 350 350 351 350 350 348 344 341 342 342 342 343 342 343 345 347 347 346 346 347 347 346 344 341 339 337 337 337 337 336 335 335 333 332 330 330 330 330 330 330 327 323 323 324 324 325 326 325 325 324 324 325 326 327
328 335 330 324 328 328 326 332 335 333 337 340 339 339 337 337 341 345 344 344 344 344 344 344 343 342 343 343 344 345 347 348 348 349 349 350 350 350 349 348 349 350 349 349 350 350 350 349 348 343 339 339 340 341 341 340 340 342 343 344 343 343 344 344 343 342 338 334 333 333 334 334 334 334 332 331 329 326 325 325 325 326 326 323 321 322 323 323 324 325 324 323 324 325 326 326 326
327 330 327 324 325 322 323 330 332 332 334 336 339 340 338 340 344 345 344 341 341 342 341 342 342 342 343 343 343 344 346 347 348 348 349 350 350 350 349 348 349 349 349 349 350 350 349 348 345 341 336 335 338 339 339 338 338 337 338 339 340 341 341 341 341 340 334 328 325 326 328 330 331 331 328 326 325 323 321 319 319 321 323 320 319 320 321 322 323 324 323 323 326 328 330 329 329
326 332 330 326 327 325 324 328 329 330 331 331 335 342 341 339 344 348 343 337 338 339 341 342 341 342 342 343 343 344 345 346 347 348 349 349 350 350 349 348 349 349 349 349 349 351 349 345 342 339 334 332 334 336 338 337 335 334 334 336 337 339 339 340 339 336 331 325 321 321 324 327 329 327 324 322 323 322 319 317 317 319 320 319 318 319 320 321 323 323 323 324 326 329 331 330 329
325 332 328 324 330 330 325 330 337 335 330 330 334 344 348 343 342 347 346 345 341 336 338 341 340 341 342 342 343 344 345 346 347 348 349 349 350 350 350 349 349 349 350 349 349 351 348 343 340 337 332 330 332 333 335 335 334 333 332 333 334 337 339 341 341 336 331 325 319 318 319 322 323 322 322 322 322 320 317 316 316 316 317 317 317 318 319 321 321 322 322 322 324 328 329 329 328
325 325 325 325 330 332 327 326 332 329 324 331 334 337 339 337 340 349 352 352 348 342 340 338 339 341 341 342 343 343 345 346 346 347 348 349 350 350 350 349 349 350 349 349 349 350 348 342 340 337 332 330 331 331 332 333 332 331 331 331 332 335 338 339 338 335 332 325 320 318 317 318 319 319 321 322 321 319 316 315 315 315 315 316 317 318 319 320 321 321 321 321 322 325 326 326 326
327 323 325 328 326 334 337 327 326 325 324 330 331 330 331 330 340 359 354 347 352 353 346 338 338 340 340 342 343 343 345 346 346 348 347 349 350 350 350 349 348 349 348 348 348 349 349 344 341 339 334 330 329 329 330 331 330 330 331 331 330 332 334 336 335 332 329 323 318 317 317 317 317 318 319 320 319 317 315 315 315 315 316 317 317 318 319 320 321 321 321 321 321 322 322 324 324
327 326 327 328 324 327 332 327 326 325 325 330 329 329 332 331 341 355 349 345 350 352 349 344 341 340 339 341 342 343 345 346 347 348 348 349 350 350 350 349 349 348 348 348 348 349 351 348 343 341 337 332 330 330 330 331 329 328 329 327 326 329 331 334 335 333 328 322 317 317 316 316 317 318 318 318 317 315 314 314 315 316 317 318 319 321 322 323 323 321 320 319 320 320 321 322 323
325 326 325 327 328 327 327 327 328 325 327 333 329 326 332 337 342 347 346 349 348 347 355 352 342 339 339 340 342 343 344 346 347 348 349 350 350 350 350 348 348 348 347 347 348 349 351 350 346 343 341 337 333 331 330 330 329 327 327 327 325 326 329 332 333 332 328 321 317 316 316 316 317 317 317 316 315 315 314 315 316 317 319 321 323 325 325 325 324 322 320 320 320 320 320 321 322
323 324 323 323 327 328 327 328 330 330 331 335 330 326 336 347 347 345 344 350 349 347 355 352 340 338 340 340 342 342 343 345 346 348 349 350 350 350 350 348 348 348 348 348 349 349 350 351 349 346 343 340 335 331 329 329 328 327 327 328 326 326 329 330 330 330 329 321 316 315 316 317 317 316 315 315 315 315 315 317 319 320 322 324 325 326 326 325 324 323 323 323 323 322 323 323 324
325 323 324 325 325 326 324 324 328 330 330 335 333 325 334 349 348 342 341 350 351 345 347 348 340 338 340 340 341 342 343 344 345 347 348 349 351 350 350 350 349 351 350 349 350 350 350 352 351 348 345 341 336 330 328 328 329 329 328 329 329 328 329 327 326 328 328 321 316 316 316 316 316 315 315 316 316 316 318 320 322 323 325 326 326 326 325 324 324 324 325 325 324 325 325 326 325
Wind_Speed
14 12 9 6 3 3 5 7 2 2 3 3 2 2 2 1 2 4 6 7 4 2 8 12 13 12 9 9 10 11 10 3 2 2 5 10 13 12 14 16 17 19 20 21 22 24 25 25 25 25 26 26 26 26 25 24 24 23 23 23 23 22 21 21 21 21 21 22 21 19 19 18 18 17 16 16 15 14 13 13 12 12 12 10 8 6 5 5 5 4 3 4 5 6 6 7 8
13 11 10 7 2 2 5 5 3 2 4 3 2 1 1 3 4 5 4 4 3 8 17 19 17 15 13 12 10 9 11 7 5 10 14 17 16 15 17 18 20 21 21 23 24 25 26 26 25 25 26 26 25 26 25 24 23 22 22 23 23 22 21 20 20 20 20 19 18 18 17 17 17 16 16 15 15 14 13 12 12 11 10 9 7 5 5 5 5 4 3 4 5 5 6 7 8
12 10 11 9 3 1 1 2 2 2 4 3 2 2 1 3 4 4 4 8 13 19 21 18 14 11 9 8 7 6 5 7 14 19 19 18 19 20 20 21 22 22 22 24 24 26 27 27 26 25 25 25 25 25 25 23 22 22 22 23 23 22 21 21 20 20 19 18 18 17 17 16 16 16 16 16 15 14 12 11 11 10 9 8 6 5 4 4 4 3 3 4 5 5 6 7 8
10 9 10 10 6 4 2 2 2 4 4 3 1 2 2 4 5 6 9 14 15 15 15 12 9 8 12 9 7 8 6 8 16 21 19 19 21 22 22 23 24 24 24 23 24 26 26 27 25 25 24 24 25 24 23 23 23 22 22 22 22 22 21 20 20 19 19 18 18 17 16 16 16 16 16 16 14 13 11 10 10 9 7 6 6 5 4 3 3 3 3 4 5 6 6 6 6
11 9 8 8 4 1 1 3 2 3 3 4 2 1 4 7 8 8 10 13 9 8 11 10 6 9 14 9 4 7 8 11 16 21 22 21 22 24 24 24 25 26 26 25 24 25 26 26 24 23 23 24 24 23 22 23 23 22 22 22 22 22 21 20 19 18 18 17 17 17 16 15 15 16 16 15 13 11 10 9 8 7 6 6 5 5 3 2 2 2 3 4 5 6 6 6 6
12 9 7 6 2 1 1 3 2 3 2 4 5 4 6 8 9 11 13 13 10 10 11 12 11 12 12 10 10 9 8 11 17 21 24 24 23 24 26 26 26 27 28 27 26 25 25 25 23 22 22 23 23 23 23 22 22 22 21 21 21 21 20 19 18 17 16 15 15 15 15 14 14 15 14 13 11 10 9 8 6 6 6 5 4 3 1 1 2 3 4 4 4 4 5 7 6
11 8 5 4 2 1 2 4 4 3 0 2 7 7 7 8 13 15 13 11 10 11 13 17 19 17 9 6 10 8 6 12 19 22 24 26 25 26 27 27 27 28 28 27 27 25 24 23 23 22 21 22 23 23 23 23 22 21 21 20 20 19 19 18 17 16 15 14 14 14 13 13 13 13 12 11 10 9 8 7 6 6 5 4 2 0 2 2 2 3 4 4 4 4 4 7 8
10 5 3 2 1 2 3 3 2 2 2 2 6 10 10 13 16 12 7 6 7 8 14 17 18 15 4 4 7 7 9 15 21 23 25 26 26 27 27 27 28 29 28 26 26 24 23 23 22 22 22 22 22 22 22 22 22 21 19 19 19 18 18 16 16 15 14 14 14 13 12 12 12 12 11 11 10 8 8 7 6 5 4 1 1 2 3 2 3 3 3 4 4 4 4 6 8
10 4 1 2 2 3 3 2 1 1 3 4 7 11 15 17 15 11 8 7 10 11 12 11 9 10 8 10 10 7 11 17 22 25 26 27 27 27 27 27 28 29 28 26 25 24 23 23 23 23 22 22 22 22 21 22 21 20 19 18 17 17 17 16 15 15 14 14 13 12 12 12 12 12 11 11 9 8 8 7 6 4 2 1 2 2 3 3 4 4 5 5 5 6 5 6 7
9 3 0 2 2 4 3 2 1 1 3 6 7 13 17 16 14 13 12 10 12 11 8 9 9 13 15 12 9 9 15 21 25 26 26 26 26 26 26 27 27 28 28 27 26 24 23 22 22 22 21 21 21 21 20 19 19 18 18 17 16 16 16 16 16 15 15 14 13 13 12 12 12 12 11 10 9 8 8 6 5 3 2 2 2 3 3 4 5 6 6 6 7 7 7 7 8
5 3 1 3 3 4 3 2 3 2 3 5 7 13 15 16 17 13 14 13 11 12 13 15 14 19 17 9 9 13 19 23 25 28 26 25 25 25 26 26 26 26 26 26 25 24 23 21 20 20 20 19 19 19 19 18 18 17 17 16 17 17 17 17 16 15 15 14 14 13 13 12 12 12 11 10 9 8 7 6 4 3 3 3 3 4 5 5 6 7 7 7 8 8 8 8 8
2 2 1 4 2 3 4 4 5 4 4 5 5 10 15 19 16 10 14 13 11 14 14 13 15 18 12 5 11 16 21 23 25 26 24 24 25 25 25 25 25 24 25 25 24 23 22 21 20 20 19 19 19 18 18 17 17 17 16 16 17 17 17 17 16 15 15 14 13 13 12 12 11 11 10 9 8 8 7 6 5 4 4 3 4 5 6 6 7 7 7 8 8 9 9 9 8
3 1 3 3 2 4 4 4 5 5 4 4 5 10 17 16 14 15 15 13 14 12 7 14 22 16 8 8 15 20 23 24 25 25 23 25 25 25 25 24 24 23 23 24 23 22 22 21 20 20 19 19 19 18 17 16 16 16 16 16 16 16 16 16 15 14 14 14 13 12 11 10 10 10 9 9 8 8 7 6 4 3 3 3 5 6 7 7 8 8 8 8 9 9 9 9 9
4 1 2 2 1 4 4 4 5 6 3 3 7 13 14 9 16 24 20 14 8 9 12 20 23 14 11 13 15 22 25 25 25 24 24 24 25 24 24 24 23 23 23 23 23 22 21 21 20 20 20 19 18 17 16 15 15 15 15 15 15 14 15 15 15 14 14 13 12 11 10 10 10 9 9 9 8 7 6 5 3 2 3 4 5 6 7 8 8 8 8 9 8 8 8 7 7
5 3 3 3 2 3 3 4 6 7 3 4 10 15 9 7 19 23 23 16 4 14 20 19 18 11 14 13 15 28 28 27 27 24 25 25 25 23 23 24 23 23 23 22 22 21 20 20 19 19 19 18 17 16 15 15 14 14 13 14 13 13 14 14 14 14 13 12 11 10 10 10 9 9 9 8 6 4 4 3 3 3 4 5 6 8 8 8 7 7 8 8 8 7 6 6 5
6 2 3 2 3 3 3 3 6 5 3 5 13 15 8 8 17 13 16 17 14 22 18 18 14 4 17 19 21 33 30 29 28 24 26 25 25 23 23 23 23 24 23 22 21 21 21 20 19 18 18 17 16 15 15 14 14 13 13 13 13 13 14 14 14 13 12 11 11 10 9 9 9 8 7 6 4 3 3 4 4 4 5 6 7 8 8 8 7 6 7 7 7 7 7 8 8
4 2 1 1 3 4 5 6 5 5 5 8 14 14 9 7 11 8 9 16 25 23 11 16 8 4 23 22 26 35 29 30 28 26 26 25 25 24 24 24 24 24 23 22 21 21 21 20 19 18 18 17 16 15 15 15 14 14 13 13 13 13 14 14 13 12 12 11 10 10 10 9 8 7 6 5 4 4 5 6 5 5 6 6 7 8 8 8 7 6 6 6 7 7 8 8 9
5 2 2 1 4 5 6 8 7 7 7 11 15 16 14 10 11 13 11 15 23 16 10 15 6 9 23 22 31 33 29 32 29 29 28 26 26 25 25 25 25 25 24 23 22 22 21 20 19 18 17 17 16 16 16 15 15 14 14 14 14 14 14 13 13 12 12 11 11 10 9 8 7 6 6 6 6 6 7 6 5 5 5 6 7 7 7 7 6 5 5 6 7 7 7 7 7
8 3 2 3 5 4 5 10 10 10 13 13 15 18 15 12 17 19 12 13 17 11 10 14 12 17 20 26 34 30 31 32 29 31 29 28 28 28 28 27 27 26 25 24 23 22 21 20 19 18 18 17 17 17 16 16 15 15 14 14 14 14 13 13 13 12 12 11 11 10 9 8 8 8 8 8 7 7 6 6 5 4 4 5 5 6 6 5 5 5 5 6 6 5 5 5 5
9 4 2 5 6 3 5 16 17 18 21 15 14 17 11 12 21 18 13 13 12 10 14 17 17 21 25 32 34 31 33 30 29 30 28 29 29 29 30 29 29 28 26 25 24 23 22 21 20 19 18 18 17 17 17 16 15 15 14 14 14 14 13 13 12 12 11 11 10 10 8 8 9 9 9 9 8 6 6 6 5 4 2 3 4 4 4 4 4 4 5 6 6 5 5 5 5
6 7 4 5 6 3 7 20 21 22 26 22 18 15 9 14 19 18 19 12 4 11 23 26 26 28 32 36 34 33 33 29 30 29 28 28 28 29 29 29 29 28 27 25 24 23 22 22 20 19 18 18 17 17 17 16 16 15 15 14 14 14 13 13 11 11 11 11 11 10 9 9 9 9 9 9 7 6 6 7 5 4 2 2 3 3 4 4 4 5 6 7 8 7 6 6 5
4 7 10 8 8 4 10 23 24 23 25 23 19 13 14 17 16 22 25 11 8 20 28 29 31 34 37 38 36 34 33 31 30 29 29 27 28 29 27 28 27 26 27 25 25 23 23 22 20 20 18 18 17 17 16 16 16 15 14 14 14 14 14 13 11 11 11 11 11 10 10 9 8 8 9 8 7 6 7 7 5 4 3 2 3 4 5 5 6 7 8 8 9 9 9 8 7
4 5 9 11 12 7 14 25 25 26 24 20 19 17 20 17 11 23 27 10 11 25 28 28 32 37 39 38 37 36 35 34 33 31 30 28 28 28 26 26 25 25 26 24 24 23 23 22 20 20 19 18 17 16 15 15 16 15 15 14 14 14 13 13 12 11 11 10 10 10 9 8 8 8 8 7 7 7 7 7 6 5 4 3 4 5 6 7 8 8 9 10 10 10 10 10 9
7 4 5 13 15 13 22 27 26 30 29 24 23 21 21 17 10 20 22 6 7 20 26 28 33 37 37 37 36 36 36 35 33 31 29 29 28 26 24 24 23 24 24 24 23 22 22 21 21 20 19 18 16 16 15 15 16 16 15 15 14 13 13 12 11 11 11 11 10 9 9 9 8 8 8 7 7 8 7 7 6 5 4 5 6 7 8 9 10 10 11 11 12 12 12 12 12
6 6 5 11 14 17 27 28 28 29 26 25 23 20 21 20 16 19 16 5 6 20 25 29 35 37 37 37 36 35 35 34 32 30 29 27 26 25 24 23 24 24 24 24 23 22 21 21 21 20 20 18 16 16 15 15 16 16 16 16 15 14 14 12 11 12 12 11 11 10 9 9 8 7 7 7 8 8 7 8 6 5 5 6 7 9 11 11 12 13 13 13 13 14 14 15 16
7 11 7 9 12 18 27 26 26 25 21 24 20 13 15 15 14 12 10 7 14 23 26 32 36 37 37 36 36 35 35 34 31 30 28 27 26 26 25 24 25 25 24 23 24 23 22 22 21 20 20 18 17 16 16 15 16 16 16 16 15 14 14 13 13 13 12 12 11 10 9 9 8 8 8 8 9 8 8 7 6 6 6 7 8 10 12 13 14 14 14 14 14 15 16 17 18
8 12 8 10 13 17 25 24 23 22 20 26 19 8 11 15 11 6 9 14 20 25 28 33 36 37 37 36 35 34 34 33 31 29 29 28 29 28 26 26 26 25 24 24 24 23 22 22 21 20 19 18 18 17 17 16 15 15 16 16 16 14 13 14 15 14 13 12 12 11 11 10 10 10 10 10 9 8 8 7 7 7 7 8 9 11 12 14 14 15 14 14 15 16 16 17 18
5 12 7 7 13 14 20 21 21 19 12 21 20 8 7 13 6 6 17 22 24 29 30 33 35 36 35 35 35 34 33 32 30 29 30 31 31 29 27 27 27 25 24 24 24 23 22 21 20 19 18 18 19 17 17 16 15 14 14 16 16 14 13 14 15 14 14 14 14 14 13 12 11 12 12 11 10 8 8 7 7 7 7 8 9 11 12 13 14 14 14 14 14 15 15 15 16
10 17 9 5 10 9 11 14 19 17 8 19 22 9 3 8 5 8 23 26 27 31 31 32 34 34 34 33 34 34 34 32 31 31 30 30 30 28 27 26 26 26 25 23 23 23 22 20 19 18 18 18 18 18 17 16 15 13 13 14 14 14 15 15 16 15 15 15 16 16 15 14 13 12 12 11 11 10 9 8 7 6 7 8 9 10 11 12 13 14 14 14 13 13 13 14 15
11 8 6 6 7 3 6 8 15 12 11 26 22 3 6 9 6 12 24 28 29 28 28 31 31 32 32 32 33 34 34 33 33 31 28 28 29 27 27 26 25 25 25 23 23 23 21 20 19 18 19 19 18 18 18 18 16 14 13 14 14 15 16 16 17 16 17 17 17 17 16 16 14 13 13 12 12 11 10 9 7 7 8 8 9 10 10 12 13 13 13 12 13 13 13 14 16
7 4 4 4 4 5 5 6 12 8 12 25 14 2 7 7 7 17 26 30 31 28 27 29 29 30 31 31 33 33 34 33 31 30 28 28 28 27 27 26 26 25 25 24 24 23 21 21 20 20 19 19 19 18 19 18 16 15 14 14 14 16 16 16 16 16 17 17 17 17 16 16 15 14 14 13 12 12 11 10 8 9 9 9 9 10 11 12 12 11 11 11 12 13 14 15 16
2 5 4 1 3 5 4 5 10 9 13 16 5 2 5 4 9 20 26 30 31 29 28 29 28 30 31 31 32 33 34 32 30 29 28 28 27 27 26 26 25 24 25 24 24 23 22 22 21 21 19 19 19 18 18 18 17 16 15 14 14 15 15 15 15 15 15 15 16 17 16 17 17 17 15 14 13 13 12 11 11 10 10 9 10 11 12 12 11 10 11 11 11 12 13 14 14
2 2 6 5 4 4 3 4 9 10 11 10 4 3 2 2 10 21 25 28 28 25 26 28 29 29 31 31 32 33 33 32 32 32 30 29 28 27 25 24 24 23 23 23 24 24 22 22 22 21 19 18 18 17 17 18 18 17 16 15 15 15 15 15 14 14 15 14 15 16 16 17 18 18 16 15 14 14 14 14 13 12 10 10 10 11 12 12 11 11 11 11 12 12 12 12 12
3 1 4 4 4 6 5 3 7 8 9 9 3 3 3 2 11 21 24 28 27 23 24 27 28 29 30 31 32 33 34 34 35 34 32 30 28 26 25 23 22 21 20 21 23 24 22 21 21 20 19 18 17 17 17 17 18 18 18 17 17 16 15 14 13 14 15 14 13 13 14 16 16 17 16 16 15 15 16 15 13 12 10 9 9 10 11 12 12 12 12 12 13 13 12 11 10
6 5 5 3 3 5 8 7 9 11 9 8 5 4 5 4 10 19 23 27 25 23 25 27 27 29 29 29 31 32 34 36 36 34 32 30 28 26 25 24 22 21 20 20 21 23 22 20 20 21 20 18 17 16 17 17 18 19 20 20 18 16 15 14 14 14 14 13 11 11 12 13 14 14 15 16 16 16 16 14 13 11 9 8 9 10 11 12 13 14 13 12 11 12 12 10 9
9 8 7 7 6 8 9 5 7 13 10 8 8 6 5 7 10 15 21 26 24 23 24 25 26 27 28 29 30 32 34 37 35 32 31 30 28 27 26 25 24 23 22 21 21 22 23 21 21 21 20 18 17 17 18 18 19 21 21 20 18 16 15 15 15 14 13 11 10 10 11 11 12 13 14 16 16 15 14 12 11 9 8 10 11 11 11 12 14 14 13 12 11 11 11 10 9
8 6 5 7 7 7 6 1 1 10 8 8 7 3 4 9 11 14 21 22 20 20 21 23 25 26 28 29 30 32 35 36 33 32 31 30 29 27 27 27 26 26 25 24 23 23 23 22 22 21 19 18 18 18 19 19 20 20 20 18 18 17 16 16 15 14 12 10 10 11 11 12 12 14 15 15 15 13 11 9 8 7 9 12 13 12 11 11 12 12 12 11 10 10 9 9 9
8 6 5 5 5 4 3 0 2 7 6 5 4 3 3 6 8 12 18 18 18 23 23 23 26 27 28 30 31 33 35 35 33 33 33 31 30 28 28 29 29 28 27 27 25 24 23 22 22 21 19 19 18 18 18 18 18 18 17 16 15 15 15 15 14 12 11 11 12 12 12 11 11 11 12 12 11 10 9 8 7 9 10 11 11 11 10 10 10 10 10 9 9 9 8 7 8
7 5 6 4 4 3 3 3 4 6 4 3 2 4 3 3 6 10 15 18 20 26 26 25 27 27 28 31 32 34 34 33 33 34 34 33 32 30 30 31 31 30 28 27 26 25 23 23 23 21 20 20 19 18 19 18 16 16 15 15 13 13 13 13 13 12 12 14 14 12 11 10 9 9 9 9 9 10 9 9 9 10 11 11 10 8 8 9 9 8 8 9 9 9 7 5 6
6 5 6 4 4 5 5 3 6 5 2 1 4 3 3 1 5 7 15 20 17 20 24 25 27 30 33 35 34 35 35 35 35 35 36 35 34 33 33 33 32 31 30 30 28 27 25 25 23 22 21 21 19 19 19 17 16 15 15 15 14 13 13 12 13 14 15 15 14 12 11 11 10 10 9 9 9 10 9 9 11 11 11 10 8 7 7 7 7 7 7 8 8 8 6 4 5
5 5 7 4 5 8 5 4 7 4 2 2 6 4 5 4 7 7 12 16 15 17 21 23 27 31 33 32 33 36 38 38 37 37 37 37 37 36 35 34 33 33 33 32 30 29 27 25 24 23 22 22 20 20 20 18 18 17 17 16 16 16 15 15 16 16 16 15 14 13 12 12 11 10 9 9 9 10 10 11 12 11 11 10 7 6 7 7 7 8 7 8 8 7 7 6 6
4 6 7 9 9 7 6 10 9 5 2 4 5 2 5 4 9 10 8 10 14 16 18 22 28 31 29 29 32 36 38 39 39 39 39 39 38 37 36 35 35 35 34 32 30 28 27 25 24 23 23 22 21 21 21 20 20 19 19 19 18 18 18 18 17 17 17 15 13 12 12 13 12 11 11 11 11 12 12 12 12 11 11 8 6 6 7 8 8 8 8 8 8 8 8 7 7
4 6 9 10 9 8 10 12 9 5 4 5 7 6 5 4 7 11 10 10 13 13 14 20 28 30 30 31 35 37 38 39 40 40 40 40 40 39 38 37 37 36 34 31 29 28 27 26 25 24 24 23 22 22 23 23 22 21 20 20 19 19 19 18 17 17 16 15 14 13 13 13 13 13 12 13 12 12 12 12 12 11 9 8 7 8 8 8 8 7 7 8 8 8 8 8 7
4 6 11 11 9 11 12 11 8 5 2 2 5 5 2 5 6 8 11 10 11 13 14 17 25 31 32 35 37 38 40 41 41 41 41 42 41 41 40 38 37 36 34 32 31 29 28 26 26 25 25 24 23 24 25 25 24 23 22 21 20 20 19 17 17 17 17 16 16 15 14 13 13 13 13 13 13 13 13 13 12 10 9 8 7 7 7 7 6 6 6 6 7 8 7 7 6
5 6 10 10 9 10 11 10 6 3 5 1 4 3 2 6 6 3 10 11 12 16 18 18 24 32 34 36 39 40 41 42 42 42 43 43 43 42 40 38 36 35 34 34 32 29 28 26 26 26 26 26 25 25 26 26 25 24 23 22 22 21 19 18 18 19 18 17 17 16 15 14 14 14 13 13 13 14 13 13 11 10 8 7 7 6 6 6 6 6 5 5 6 6 6 5 5
5 7 8 6 5 5 7 7 4 4 4 5 7 6 5 6 4 3 7 9 14 17 18 18 25 33 35 37 41 42 41 41 41 43 44 44 44 42 40 38 36 35 34 34 32 30 28 27 27 28 28 28 27 27 28 27 26 25 25 24 24 22 20 19 20 21 20 18 17 17 16 15 14 14 14 14 14 14 13 12 11 9 8 8 7 6 6 6 6 6 5 5 5 5 4 4 4
6 8 7 7 6 4 3 1 3 4 1 6 10 12 9 5 4 5 7 11 17 17 14 15 22 30 36 39 42 43 42 41 41 42 44 44 43 42 40 39 37 36 35 35 34 32 30 29 28 29 30 29 29 29 29 29 28 27 27 26 25 23 21 21 21 21 20 19 18 17 16 15 14 14 14 14 14 12 11 11 10 9 8 8 7 6 6 6 6 6 6 6 5 4 3 3 4
7 5 5 5 3 4 4 5 3 3 4 7 8 9 7 6 6 6 11 16 17 17 15 15 19 28 38 41 42 43 44 42 41 42 43 43 42 42 42 41 39 38 37 37 36 34 32 30 30 31 31 32 32 31 31 31 30 29 28 27 26 24 22 21 20 19 18 18 17 17 16 16 15 15 15 15 13 12 11 11 10 9 9 8 8 7 7 7 6 6 6 6 5 3 2 3 3
5 5 6 5 1 2 1 1 0 3 6 6 6 8 4 7 9 8 11 14 13 15 19 20 21 29 37 41 42 42 42 43 42 42 43 43 43 44 44 44 42 40 39 39 37 35 34 32 32 33 34 34 34 33 33 33 32 31 29 28 26 25 23 21 19 18 17 16 16 17 17 18 17 17 16 15 13 12 11 11 10 9 9 8 8 7 8 7 7 7 6 5 4 3 3 3 3
5 6 6 5 3 2 3 3 0 2 5 4 5 9 4 5 7 10 14 17 20 23 27 27 23 26 35 41 41 41 41 43 44 44 44 44 45 46 46 45 44 43 41 40 38 36 35 34 35 35 35 35 35 36 35 35 34 32 29 28 26 25 23 20 19 18 17 16 16 17 18 18 18 18 17 15 14 11 10 10 9 8 8 8 8 8 9 8 8 8 7 6 5 4 4 4 4
6 5 6 6 5 5 4 3 3 3 3 2 3 6 5 3 4 9 13 17 22 27 29 26 19 18 28 34 35 36 39 42 44 45 46 46 47 47 48 47 46 44 43 41 40 38 37 36 37 37 37 37 38 38 38 37 35 32 30 28 27 25 22 20 19 18 17 16 16 17 18 17 17 17 16 15 13 11 11 10 9 9 9 9 9 10 10 10 10 9 9 9 8 7 7 7 7
5 3 5 5 7 6 3 3 6 4 2 1 2 3 5 5 6 6 4 7 13 20 23 23 20 17 22 29 32 35 38 41 43 45 46 46 47 47 48 48 47 46 44 43 42 41 40 39 39 39 39 39 40 40 39 38 36 33 31 29 27 25 23 21 20 19 17 17 17 17 17 17 17 16 16 15 14 13 12 11 10 10 10 11 11 11 11 11 11 11 12 12 11 10 10 10 10
2 3 4 5 6 7 3 2 2 3 2 2 2 3 3 2 6 7 2 4 8 10 14 19 21 19 22 29 33 36 39 42 44 46 47 48 47 48 48 48 48 46 45 44 44 43 42 42 41 41 41 41 42 42 41 39 37 35 33 31 29 26 24 23 21 19 18 17 18 18 18 18 18 17 17 16 15 15 14 13 12 11 11 12 13 12 11 12 13 13 13 13 14 13 13 13 13
5 4 7 2 3 3 3 2 1 2 3 4 2 5 3 1 3 6 3 6 10 9 8 12 15 18 24 30 34 38 41 43 44 46 48 48 49 49 49 49 48 46 45 44 44 44 44 43 43 43 43 43 44 44 43 41 39 37 35 32 30 28 25 24 22 20 18 19 20 20 20 20 19 19 19 18 17 17 15 15 14 13 13 13 12 11 10 11 12 13 13 14 14 15 15 15 15
4 5 7 5 3 2 1 3 2 1 3 4 3 3 4 4 4 5 5 9 13 11 7 7 10 17 26 31 35 38 40 40 41 44 46 47 48 49 49 49 48 46 45 44 44 44 45 45 44 44 44 44 45 45 44 42 40 39 36 33 31 29 27 25 23 21 20 21 22 22 23 22 21 21 21 20 19 17 17 17 16 14 14 12 11 10 10 11 12 12 12 12 13 14 15 15 14
2 4 5 3 3 5 3 3 4 4 4 3 2 3 3 6 7 7 10 12 13 11 8 8 12 21 29 30 32 36 38 40 42 44 46 47 48 50 51 50 49 47 45 44 45 45 46 46 46 46 45 45 45 46 45 44 43 41 38 35 33 32 29 27 25 22 22 23 24 25 25 24 22 22 21 20 19 18 17 18 17 15 13 11 10 11 12 12 12 12 11 11 11 12 13 13 13
3 4 5 2 1 2 2 2 4 4 4 4 3 3 5 7 6 9 13 12 12 12 11 11 14 23 28 28 31 36 39 41 43 44 46 47 48 50 51 51 50 48 46 46 47 47 47 47 47 47 47 46 47 48 47 47 46 44 42 40 37 35 31 29 27 25 24 24 26 27 26 23 22 21 21 20 19 18 18 18 17 15 12 11 11 12 12 12 12 12 11 11 10 10 12 12 13
8 6 6 6 4 4 3 4 1 2 3 5 5 4 6 7 6 9 12 10 9 12 12 11 15 22 26 28 34 39 40 42 43 44 45 46 47 48 49 50 50 49 49 48 48 49 49 49 49 49 49 49 49 50 50 50 49 48 46 44 41 37 34 32 29 27 25 26 28 28 25 23 22 22 20 19 19 18 19 18 16 14 12 12 12 12 12 13 12 12 11 10 10 11 12 14 14
Wind_Direction
176 173 168 167 215 276 322 341 27 11 53 98 46 40 44 56 98 103 113 118 106 44 103 118 121 116 111 113 111 84 45 20 186 129 128 148 146 140 144 143 137 137 142 143 141 145 148 149 151 153 152 153 152 152 151 150 148 147 147 146 147 146 142 140 139 139 142 144 142 142 145 148 148 148 146 146 146 145 145 143 142 140 138 137 136 132 121 116 114 105 89 59 35 22 24 33 44
164 159 154 157 196 332 331 356 54 11 51 77 11 22 41 25 54 95 117 115 105 105 106 104 96 89 96 106 97 70 41 37 131 124 124 141 140 138 142 137 134 136 140 142 142 146 150 150 152 153 154 155 156 155 155 153 149 148 149 149 149 146 143 141 141 140 141 142 142 144 147 151 152 152 150 151 152 151 149 146 146 143 141 140 139 129 115 108 102 91 65 42 27 17 19 25 34
161 161 151 150 164 157 238 11 92 85 70 89 10 325 53 62 61 63 78 101 115 114 107 97 81 73 86 89 55 58 72 80 116 121 125 140 141 141 141 137 135 136 141 142 143 147 149 150 150 152 154 158 160 158 156 154 151 150 151 150 150 147 145 145 145 144 144 144 146 149 151 153 154 155 155 155 156 155 152 149 148 147 145 142 134 119 104 94 87 75 44 28 22 11 13 17 24
170 167 155 161 172 174 177 66 124 111 104 132 85 307 88 102 102 84 93 110 121 116 109 96 69 70 87 89 71 76 103 116 121 126 132 143 144 142 140 140 139 138 141 141 143 146 148 149 149 151 155 159 161 159 157 155 153 152 152 150 151 149 148 148 147 147 147 148 151 153 155 156 157 157 158 158 157 154 151 151 151 152 150 140 129 118 108 91 71 55 29 18 16 8 7 6 11
175 170 163 176 183 195 145 91 105 103 142 164 136 179 124 121 119 107 102 108 119 114 112 107 85 86 84 75 75 94 117 130 131 133 137 143 146 142 139 142 141 140 141 140 141 142 146 148 148 151 154 159 160 158 156 154 152 152 152 152 153 152 151 151 149 149 149 151 153 154 157 158 160 161 162 160 156 154 153 153 154 158 154 143 134 127 118 86 32 22 14 12 12 6 358 346 348
172 171 172 185 209 274 123 96 94 96 192 172 133 158 143 135 129 117 99 91 96 113 114 107 112 105 82 62 73 95 123 135 136 138 140 142 145 142 141 144 143 141 140 139 139 140 144 145 146 149 153 157 156 155 154 152 152 152 154 155 155 153 153 153 151 152 152 153 155 157 159 160 163 165 165 161 157 157 157 160 163 168 160 151 146 136 111 19 352 354 359 6 7 9 349 326 334
172 169 175 191 261 312 96 109 133 121 284 159 141 150 147 140 132 121 105 94 89 105 112 109 114 104 84 79 77 78 119 141 140 141 142 141 145 144 143 144 144 141 141 141 140 141 142 141 142 144 150 153 151 152 153 154 154 154 155 155 155 155 154 155 155 154 155 157 158 159 160 161 165 167 166 162 161 162 165 173 174 172 163 158 154 54 354 355 344 340 347 355 355 3 343 322 330
179 173 168 158 8 38 82 98 131 139 88 94 138 142 143 142 136 127 115 113 104 109 115 117 113 95 77 122 95 96 129 142 141 142 143 142 145 145 144 144 144 140 139 141 140 141 140 140 140 142 147 148 150 152 154 156 156 155 154 155 156 156 155 156 157 157 158 158 157 158 159 161 166 169 170 168 170 173 177 178 172 169 164 174 325 335 338 343 330 324 331 344 343 343 337 324 325
184 182 134 113 66 52 67 51 28 111 111 117 128 134 139 142 140 129 112 99 114 118 119 129 111 98 111 106 103 124 137 144 142 142 143 143 146 145 144 145 144 141 139 141 141 141 140 141 143 145 148 149 151 153 154 155 156 155 154 156 157 156 156 157 157 158 159 157 155 155 158 162 167 171 174 176 178 179 178 173 168 169 181 274 314 319 319 317 315 321 329 340 339 332 327 317 317
185 200 217 94 73 73 75 20 43 70 101 125 127 139 143 145 138 126 119 109 119 113 112 130 110 114 121 103 102 131 142 146 144 143 143 144 145 145 145 146 145 142 140 141 142 142 142 143 146 147 148 150 152 152 152 154 156 157 156 157 158 158 159 158 158 158 158 156 154 155 159 163 168 172 175 178 179 177 171 170 173 184 214 260 279 287 292 298 309 321 330 339 340 334 329 323 319
176 231 231 81 70 101 138 92 102 102 107 115 121 143 147 141 127 114 113 112 117 113 117 119 109 116 114 99 112 136 147 150 148 144 144 146 146 146 147 147 146 143 142 142 143 143 142 144 147 147 148 151 152 152 153 154 155 157 158 160 160 161 161 161 159 158 158 156 156 158 161 164 168 171 174 175 175 174 171 175 182 197 220 248 268 280 288 297 310 319 329 336 337 335 331 328 323
178 255 120 84 114 146 160 137 122 122 123 127 140 153 150 139 126 120 122 119 124 123 126 125 129 126 104 95 129 144 153 154 152 147 148 149 149 149 151 151 148 146 145 145 145 145 145 146 150 150 151 153 155 156 155 154 156 158 161 163 163 163 163 163 161 159 159 159 161 163 165 167 170 172 175 174 174 176 177 181 188 207 229 258 278 289 295 304 316 322 331 334 335 335 330 330 329
198 157 101 76 162 143 133 135 135 128 134 160 164 160 153 142 133 137 125 121 134 132 142 142 138 127 98 122 140 153 157 159 158 152 154 153 152 153 154 153 150 149 149 150 150 149 150 152 154 153 153 156 158 159 158 158 158 161 164 165 165 163 164 165 165 163 164 166 167 168 169 172 174 177 178 177 177 179 184 191 200 220 253 288 301 305 307 314 322 327 334 338 338 336 332 333 336
206 340 102 106 98 126 128 130 145 143 175 190 161 163 158 146 146 143 130 124 141 144 143 144 139 121 119 131 147 164 162 163 162 157 159 157 155 155 156 156 154 155 154 156 154 152 155 157 157 156 157 158 160 161 162 162 161 163 164 165 165 164 166 168 169 171 171 171 171 171 171 173 177 180 181 182 182 185 198 211 222 264 313 325 327 325 323 325 328 329 333 340 339 337 334 331 336
219 314 61 123 97 116 153 158 154 153 190 181 161 165 149 142 153 145 141 140 149 151 141 147 145 126 150 155 167 170 164 164 163 160 162 162 160 158 160 159 158 160 159 161 159 157 160 161 161 160 161 161 161 161 163 164 164 166 167 167 166 167 168 170 172 174 175 172 170 171 174 177 180 184 186 189 191 198 227 252 280 303 316 332 340 337 333 331 330 328 331 337 335 339 336 325 343
225 274 47 110 152 153 185 158 136 148 193 167 165 161 112 130 151 138 151 146 137 150 147 154 153 143 168 167 168 166 162 163 164 163 164 165 165 163 165 164 164 164 164 166 164 164 165 165 165 165 165 166 166 164 166 166 165 168 170 170 170 169 170 172 174 174 174 173 173 176 180 185 187 190 192 201 211 227 258 278 290 298 309 328 338 333 329 328 325 325 330 334 331 335 335 338 1
205 199 49 83 181 177 176 165 159 166 168 157 169 161 120 141 150 125 155 144 139 148 153 158 161 174 165 163 163 160 159 163 165 165 165 167 169 170 171 171 170 169 170 171 169 170 170 169 170 169 171 173 173 171 170 168 167 168 170 172 171 172 172 174 176 176 176 177 181 185 190 195 196 199 204 218 233 246 262 271 279 295 306 315 324 323 322 321 322 325 326 327 328 333 336 347 5
176 136 149 211 201 192 179 176 171 151 153 164 174 164 147 154 145 133 136 131 138 141 147 158 154 157 162 160 159 158 160 165 168 168 168 171 174 176 177 177 176 174 175 176 175 175 175 174 175 175 176 177 177 177 176 174 171 169 172 175 173 175 175 178 181 182 184 185 190 195 200 204 206 213 222 229 240 249 256 262 273 287 294 300 311 319 323 323 326 331 333 332 334 339 342 346 355
178 124 136 218 205 205 180 167 162 154 160 164 168 165 158 156 145 143 139 133 141 128 130 144 132 145 157 158 158 161 164 168 171 172 173 176 178 180 180 181 181 180 180 181 180 179 180 178 178 180 180 181 181 182 181 179 176 174 179 181 178 179 180 183 187 190 193 195 200 206 207 210 215 222 229 232 238 246 251 256 265 270 281 303 316 322 323 325 333 338 345 344 340 343 348 347 346
194 170 162 242 205 202 171 166 169 165 159 154 160 165 166 160 150 147 146 145 152 148 148 147 144 152 159 161 162 164 168 172 174 176 179 180 182 181 181 183 184 184 184 185 183 183 184 182 182 183 184 185 185 186 184 181 181 180 184 186 185 186 188 190 194 198 201 205 210 217 218 219 224 227 232 236 242 247 251 251 252 252 266 317 329 325 312 315 333 336 342 344 338 338 342 346 343
189 177 198 234 182 177 173 168 171 166 160 156 156 159 165 164 154 148 145 141 173 186 175 169 164 163 162 164 166 168 172 175 176 180 183 183 184 185 186 186 186 187 186 188 187 188 187 184 186 187 188 188 188 190 187 184 185 186 188 190 190 191 194 197 201 205 210 215 217 225 229 229 233 235 237 240 245 247 246 246 248 246 246 321 346 342 323 315 320 320 326 331 331 327 326 330 329
172 198 213 202 164 169 177 170 171 168 160 153 153 160 165 163 160 159 156 153 201 196 188 179 171 168 168 168 168 171 175 177 179 183 184 184 184 187 191 189 189 189 189 191 191 192 189 187 188 190 191 189 190 193 190 190 191 191 191 194 196 195 197 199 206 211 215 221 223 229 233 235 239 240 239 237 239 235 235 240 246 247 249 293 329 342 337 325 316 310 309 312 318 316 313 313 316
207 229 221 201 183 169 168 171 170 164 158 158 164 165 160 157 168 172 169 173 200 194 189 180 174 171 171 170 171 174 177 179 182 183 184 184 184 187 188 189 190 189 190 193 193 193 190 188 189 191 192 191 194 195 195 197 198 198 197 200 201 201 202 202 209 216 219 224 228 232 235 237 238 239 235 231 230 224 227 234 240 251 260 287 309 322 324 317 310 306 303 300 302 304 304 301 304
217 242 217 204 199 174 165 170 168 165 167 169 163 157 161 164 172 180 184 213 216 191 185 178 172 170 171 173 176 178 180 182 183 183 185 186 186 186 185 186 187 188 191 192 193 193 190 188 188 190 193 195 199 200 200 202 202 203 203 205 204 206 209 208 213 222 226 228 231 232 232 234 234 234 226 221 223 220 223 230 239 252 266 291 304 309 306 305 305 302 301 295 293 295 296 293 292
221 233 206 192 198 174 167 167 166 168 170 165 155 158 173 177 168 174 193 233 196 182 179 173 168 169 173 176 179 181 183 185 185 185 186 188 187 186 187 188 187 190 193 191 192 192 189 189 189 192 195 198 202 205 206 205 206 207 208 209 207 208 212 213 217 223 229 230 231 229 228 229 226 224 215 214 220 217 221 229 240 255 273 294 299 301 300 302 304 302 300 295 293 293 293 292 290
220 223 205 176 182 168 164 162 164 168 163 158 154 163 179 179 163 164 194 189 173 175 172 170 168 171 176 179 183 184 186 187 188 187 187 188 188 189 191 190 191 192 193 193 192 190 189 190 194 198 198 198 201 206 209 209 210 209 210 210 208 211 213 214 216 221 229 233 234 233 232 226 216 212 207 210 216 217 225 233 247 261 276 292 295 296 299 302 303 301 298 296 294 292 292 293 293
231 210 193 164 159 157 159 156 160 162 162 165 160 155 167 167 162 168 191 175 170 170 167 170 172 174 178 182 185 187 189 190 190 188 188 189 190 191 191 191 193 193 193 195 193 191 191 194 199 202 201 199 200 205 209 212 214 213 214 213 211 214 214 214 217 221 227 234 237 237 236 226 213 210 208 211 216 220 230 239 251 264 277 288 293 294 297 300 299 298 297 296 295 294 295 296 299
208 150 113 123 129 135 151 149 156 155 163 172 153 111 142 163 188 197 175 172 174 170 167 173 175 177 181 183 187 190 193 193 193 192 191 192 191 191 192 193 193 193 195 196 195 194 195 197 200 201 200 201 202 207 210 212 214 214 218 218 216 218 218 218 219 223 228 233 236 237 239 233 220 214 213 216 220 227 237 244 252 262 276 280 285 291 295 298 296 298 299 299 300 299 301 302 305
148 128 95 91 99 111 146 143 157 156 157 161 138 89 163 191 239 187 168 170 173 170 169 174 177 180 183 186 189 193 195 195 197 198 197 196 195 195 196 196 194 194 195 196 197 197 198 200 200 200 201 203 205 207 209 210 210 212 217 219 220 220 221 223 223 226 229 230 234 237 240 240 234 224 221 224 228 237 244 252 260 266 273 271 278 288 293 296 297 300 301 302 302 303 306 306 308
130 113 103 112 85 114 168 142 155 152 152 156 143 115 223 220 231 172 167 167 166 166 170 176 178 181 185 189 193 196 198 198 200 202 203 202 202 200 199 199 197 195 195 197 199 200 201 203 203 203 204 206 206 205 208 208 208 210 213 215 220 222 223 226 227 230 233 234 237 240 240 241 240 233 230 234 237 245 252 257 266 272 272 271 280 289 292 295 297 298 298 299 302 305 308 307 308
121 94 87 110 129 183 200 156 150 142 163 162 148 231 220 229 213 173 170 170 167 166 172 178 180 182 186 190 195 199 201 201 204 206 207 208 208 206 204 201 199 198 199 201 202 201 203 207 208 207 207 208 207 206 208 209 209 209 210 214 219 223 225 227 231 234 236 241 244 243 241 239 238 236 237 239 241 247 253 257 265 269 271 277 288 292 294 295 293 291 290 294 300 305 307 308 312
119 125 110 137 156 183 220 190 167 153 174 178 154 239 234 248 195 176 174 174 172 170 174 180 183 185 189 192 196 201 204 205 207 209 211 212 212 211 210 207 204 203 203 205 206 204 205 209 210 210 210 210 209 211 213 213 215 214 216 220 223 228 230 232 236 239 240 244 247 244 239 235 234 236 239 241 243 245 248 252 258 263 270 283 292 294 296 294 286 284 290 296 300 304 306 308 314
302 131 154 174 148 181 217 210 199 163 164 195 191 171 239 276 187 180 178 177 175 174 177 181 185 189 191 194 197 201 204 207 209 211 213 214 214 213 213 212 210 209 209 209 209 208 209 209 210 211 212 212 213 216 218 220 221 223 227 229 231 234 235 234 237 245 247 247 250 246 241 239 237 241 245 244 243 244 247 250 254 262 272 284 291 295 295 288 280 284 293 300 302 304 304 305 311
253 59 138 171 159 178 179 179 209 175 163 196 185 161 215 216 178 180 183 181 178 179 181 185 188 192 196 198 199 202 204 208 211 212 211 212 213 213 213 212 211 213 216 215 214 215 215 212 211 213 214 215 217 219 223 225 226 229 233 234 236 238 241 242 240 247 251 252 254 252 251 250 247 250 255 254 252 252 251 251 255 262 272 280 287 291 288 278 273 280 291 300 303 304 301 298 305
183 165 143 171 171 190 193 184 187 174 174 191 187 208 213 175 169 181 188 185 183 185 185 188 191 194 199 200 202 205 206 210 214 214 212 212 213 214 214 214 214 216 218 219 219 219 220 218 215 215 215 215 217 221 225 227 228 231 233 235 236 238 246 249 249 253 256 258 259 259 260 259 260 261 263 262 262 262 259 256 257 261 269 276 282 285 279 268 265 274 285 295 298 299 300 296 297
176 172 160 171 185 207 203 196 181 169 173 196 199 212 192 167 173 183 189 188 190 192 189 191 195 198 201 203 206 208 210 214 217 216 215 214 216 217 218 218 218 219 220 220 220 219 220 221 219 218 217 215 216 219 221 223 225 230 235 237 239 241 246 251 257 262 262 265 267 270 269 267 269 268 264 261 260 261 258 251 248 258 269 272 276 282 278 268 267 275 284 288 291 295 300 298 294
168 153 154 175 191 215 208 314 242 166 171 209 197 185 183 181 183 183 186 189 194 196 195 196 198 200 203 205 209 211 214 219 220 219 218 218 219 220 221 221 222 222 222 222 220 219 219 220 222 221 218 217 219 218 218 220 222 227 232 235 240 244 248 253 259 264 268 271 271 272 273 272 271 265 259 256 252 248 238 227 235 261 275 276 280 283 278 271 272 279 286 291 297 302 305 304 298
168 150 147 181 203 219 198 3 241 173 177 229 174 146 214 201 192 185 182 189 199 199 197 199 200 203 206 208 211 214 218 221 221 221 220 220 220 221 223 223 224 224 223 223 222 221 219 220 222 223 222 221 222 220 219 221 223 226 231 235 242 246 249 253 256 262 267 266 264 267 268 268 266 254 246 243 236 226 218 221 247 275 289 295 297 288 273 267 271 279 291 301 308 313 314 305 296
167 143 137 188 207 188 195 152 158 173 197 262 133 147 247 224 194 193 191 200 207 203 201 202 201 203 209 211 212 215 218 220 221 221 221 221 221 222 223 224 225 226 226 225 224 223 220 220 222 224 224 224 225 223 222 224 228 231 234 239 244 247 250 250 250 250 251 255 260 262 257 254 255 246 238 232 222 218 223 240 270 293 306 310 306 291 272 267 273 286 301 312 316 320 323 305 288
160 138 146 201 194 176 222 190 144 149 162 187 127 111 316 195 183 214 211 213 217 211 210 210 207 208 212 213 214 215 217 219 220 221 222 221 221 222 223 224 225 226 227 227 225 223 221 221 223 223 222 224 226 225 223 224 228 232 234 235 236 239 241 240 240 241 243 249 253 254 252 254 256 251 243 233 224 228 241 265 287 300 305 305 302 293 284 280 286 296 306 315 320 325 327 308 285
183 171 160 176 186 190 205 156 137 116 69 127 111 54 316 202 185 218 217 215 222 219 215 216 217 216 216 216 217 217 219 220 220 221 222 220 220 221 222 224 225 226 227 227 226 224 223 224 225 223 221 224 226 224 222 223 223 226 227 226 225 226 227 229 233 236 239 242 246 251 255 258 259 256 250 243 241 249 261 275 285 292 296 297 294 290 289 289 293 298 302 310 314 316 312 298 287
197 210 181 172 180 181 149 134 131 123 216 213 126 90 289 234 200 211 206 206 216 217 214 216 220 220 220 219 219 220 221 221 222 222 222 221 221 221 223 224 225 227 227 227 227 226 226 227 225 222 222 224 225 222 221 222 222 221 221 219 218 220 223 229 234 238 242 245 249 254 254 256 258 255 251 248 250 256 263 270 275 282 286 277 263 261 265 269 275 281 287 294 296 294 292 292 292
192 223 186 172 162 147 145 146 141 150 210 206 168 189 266 287 227 212 200 205 213 214 216 219 219 219 217 218 220 221 221 222 222 223 223 223 223 222 223 224 225 227 227 226 227 227 228 228 224 221 221 223 223 220 219 221 222 221 219 219 219 223 228 232 237 242 245 247 249 250 248 251 252 249 246 244 247 252 257 261 265 270 267 249 241 242 244 252 256 259 263 270 277 278 280 289 300
211 215 169 160 150 152 160 159 166 178 137 137 178 179 262 279 250 207 190 206 221 221 222 221 219 219 217 217 221 221 221 221 221 222 222 223 224 224 223 224 225 226 226 226 226 226 226 225 223 220 221 223 222 220 220 220 221 220 219 219 221 226 230 234 239 243 246 246 246 245 245 247 248 247 245 243 245 248 252 255 257 258 253 243 241 240 243 250 250 252 251 254 265 270 275 285 294
228 190 151 154 156 161 168 168 186 167 106 179 227 158 184 261 278 195 180 202 223 226 224 220 217 217 216 216 220 222 222 222 222 222 223 224 225 225 224 224 224 225 226 227 226 225 224 222 221 221 222 223 222 221 220 221 221 221 220 221 224 227 230 232 237 242 244 245 245 245 245 246 245 243 242 242 244 247 249 250 251 251 249 248 247 241 242 245 249 253 251 251 257 264 274 281 282
214 146 111 97 111 135 160 171 167 100 122 212 218 182 197 258 274 172 172 205 224 227 226 220 216 216 215 216 218 221 222 221 222 223 225 226 227 226 226 225 225 226 226 227 227 225 223 221 220 222 222 223 223 222 222 221 220 220 221 222 225 227 229 232 235 239 241 243 243 244 244 243 241 240 238 238 242 245 246 244 245 248 249 249 248 244 240 239 245 247 249 255 256 256 257 259 265
136 111 85 65 54 65 86 82 94 96 197 236 210 191 197 249 260 185 182 208 214 219 226 220 215 214 215 217 216 218 220 220 221 222 224 227 228 227 226 226 226 226 226 227 226 225 222 220 220 222 223 223 223 222 221 221 219 220 221 222 224 225 228 233 236 237 240 242 242 243 243 241 239 238 236 239 242 244 243 242 244 247 248 252 254 250 248 245 243 242 246 251 257 261 242 233 251
126 103 102 107 25 30 41 10 51 124 244 253 215 187 191 239 256 215 212 220 213 212 221 215 208 210 213 215 216 216 217 218 219 220 222 224 225 225 225 225 226 226 225 225 225 224 222 221 221 221 222 223 222 222 221 219 219 219 220 221 223 223 227 233 235 239 243 245 245 244 243 239 236 236 237 241 243 243 243 243 246 249 250 257 261 257 257 255 247 238 237 238 243 254 243 238 248
129 118 112 138 255 24 99 278 80 184 242 255 176 151 183 244 249 240 232 237 228 220 223 217 209 207 208 212 214 214 214 215 217 218 220 220 220 222 223 224 224 224 224 224 224 224 222 220 220 220 221 221 221 221 219 218 218 218 219 220 221 222 227 232 235 241 245 247 247 246 244 243 240 240 242 244 245 247 249 248 250 250 248 254 257 256 256 252 242 231 223 222 226 237 250 260 262
154 149 140 158 167 160 212 235 354 223 255 285 144 153 206 266 259 244 234 235 230 227 230 227 220 209 206 211 212 211 212 213 215 216 218 218 219 220 223 223 223 223 223 223 223 223 221 220 219 219 219 220 220 220 218 218 218 218 218 219 221 223 227 231 236 240 243 245 247 248 249 248 246 248 250 248 247 250 253 251 247 239 236 245 251 251 251 245 238 229 219 215 219 233 251 262 267
180 165 147 162 162 171 209 197 186 211 244 325 120 159 195 204 248 242 234 239 232 231 237 238 238 221 208 210 210 209 210 211 213 215 216 218 219 220 222 223 224 223 222 222 221 222 221 219 218 218 217 217 218 218 218 218 217 217 218 220 223 226 228 232 238 242 243 245 246 248 249 248 249 252 251 246 246 251 254 247 234 227 231 240 245 244 243 241 238 230 225 225 228 238 251 260 266
207 146 132 185 184 165 187 188 181 177 142 115 173 213 217 211 274 288 282 273 241 231 237 237 237 222 201 204 207 207 209 210 212 214 215 217 219 220 221 222 224 224 223 223 221 221 220 218 217 216 215 214 216 217 218 218 217 217 218 220 224 227 229 234 238 241 244 244 245 246 247 248 249 248 244 241 245 249 248 238 228 227 231 236 237 237 238 239 240 235 232 234 236 244 253 260 267
181 149 178 208 168 141 152 221 160 124 187 246 192 238 285 305 295 295 277 277 262 239 230 227 226 208 192 200 204 205 208 210 211 212 214 216 217 219 221 222 224 224 224 223 221 220 220 218 217 216 215 214 216 216 217 218 217 217 218 220 224 226 228 232 236 239 243 244 243 243 243 245 243 241 239 240 245 245 240 234 231 229 229 229 229 230 235 240 242 243 242 242 243 248 255 261 268
133 185 199 168 100 108 123 190 34 76 223 263 193 207 237 183 280 305 286 238 251 251 230 222 216 195 194 204 203 205 210 211 211 213 214 215 215 217 219 221 224 225 225 224 222 221 220 220 220 218 216 214 214 216 216 217 217 218 218 220 223 226 227 230 233 237 241 242 240 238 238 237 236 236 237 237 239 239 235 231 230 229 227 227 227 232 241 246 248 250 250 251 251 253 258 265 271
149 182 175 139 147 209 139 171 187 158 215 264 282 249 234 198 223 279 261 227 235 242 227 213 203 193 202 207 203 204 209 209 210 212 213 214 214 216 218 220 223 225 226 227 225 224 224 224 223 223 221 218 218 219 218 218 218 219 219 218 221 224 225 228 231 233 238 239 236 234 233 232 232 233 234 234 234 234 231 227 226 227 228 229 236 247 255 258 258 258 258 258 258 258 262 266 270
69 116 154 148 165 178 182 170 169 187 206 227 275 285 252 228 218 215 224 228 229 228 214 210 207 204 208 207 201 201 205 207 209 211 213 213 213 215 218 221 223 225 227 227 227 228 227 226 226 226 225 223 223 222 220 219 219 219 219 217 219 221 223 226 228 230 235 237 235 233 229 227 228 230 232 233 233 231 228 225 222 223 227 235 246 254 260 261 258 258 261 263 262 261 263 265 266
134 155 174 181 123 132 183 183 138 155 174 178 204 242 254 247 213 199 218 228 223 214 210 216 214 209 210 205 199 202 205 207 210 211 213 213 213 215 218 221 224 225 226 227 227 228 229 229 228 227 227 226 225 224 222 220 220 219 219 219 219 220 220 223 226 229 233 235 234 230 226 224 226 229 231 231 231 229 227 223 220 220 226 238 248 254 258 256 251 253 259 262 263 262 264 266 268
166 183 181 176 164 130 181 241 237 130 162 176 181 214 257 250 199 200 218 222 221 216 210 216 216 208 205 203 204 207 208 208 211 213 214 213 214 215 217 219 221 223 225 227 228 229 230 230 229 229 228 227 226 224 223 222 221 221 221 221 221 221 220 221 222 226 229 233 233 228 222 223 225 227 229 228 227 226 223 219 216 219 228 237 245 250 251 249 247 251 256 259 262 264 267 271 273